Dalhart, TX

1:18 PM CDT on August 23, 2017 (GMT -0500)
Dalhart Municipal

Weather History for KDHT - September, 2013

Change the Weather History Date:

Sunday, September 8, 2013

  Actual Average Record
Temperature  
Mean Temperature 78 °F 70 °F  
Max Temperature 94 °F 85 °F 95 °F (2000)
Min Temperature 61 °F 56 °F 43 °F (2001)
Degree Days  
Heating Degree Days 0 1  
Month to date heating degree days 0 3  
Since 1 July heating degree days 0 6  
Cooling Degree Days 13 6  
Month to date cooling degree days 102 56  
Year to date cooling degree days 1455 1052  
Growing Degree Days 28 (Base 50)    
Moisture  
Dew Point 51 °F    
Average Humidity 46    
Maximum Humidity 72    
Minimum Humidity 20    
Precipitation  
Precipitation 0.00 in 0.06 in 1.04 in (1950)
Month to date precipitation 0.00 0.48  
Year to date precipitation 5.02 13.83  
Snow  
Snow 0.00 in 0.00 in 0.00 in ()
Month to date snowfall 0.0 0.0  
Since 1 July snowfall 0.0 0.0  
Since 1 September snowfall 0.0 0.0  
Snow Depth 0.00 in    
Sea Level Pressure  
Sea Level Pressure 29.87 in    
Wind  
Wind Speed 9 mph (South)    
Max Wind Speed 22 mph    
Max Gust Speed 25 mph    
Visibility 10 miles    
Events      
T = Trace of Precipitation, MM = Missing Value Source: NWS Daily Summary

Daily Weather History Graph

Daily Weather History Graph

Search for Another Location

Airport or City:

Trip Planner

Search our weather history database for the weather conditions in past years. The results will help you decide how hot, cold, wet, or windy it might be!

Date:

Astronomy

Sep. 08, 2013 Rise Set
Actual Time 7:27 AM CDT 8:07 PM CDT
Civil Twilight 7:01 AM CDT 8:33 PM CDT
Nautical Twilight 6:31 AM CDT 9:03 PM CDT
Astronomical Twilight 5:59 AM CDT 9:34 PM CDT
Moon 10:39 AM CDT (9/8) 9:52 PM CDT (9/8)
Length of Visible Light 13h 31m
Length of Day
12h 39m
Waxing Crescent, 11% of the Moon is Illuminated
Sep 8
Waxing Crescent
Sep 12
First Quarter
Sep 19
Full
Sep 26
Last Quarter
Oct 4
New

Hourly Weather History & Observations

Time (CDT) Temp. Heat Index Dew Point Humidity Pressure Visibility Wind Dir Wind Speed Gust Speed Precip Events Conditions
12:53 AM 73.9 °F - 53.1 °F 48% 29.91 in 10.0 mi South 8.1 mph - N/A   Clear
1:53 AM 69.1 °F - 54.0 °F 58% 29.92 in 10.0 mi South 6.9 mph - N/A   Clear
2:53 AM 69.1 °F - 54.0 °F 58% 29.92 in 10.0 mi South 8.1 mph - N/A   Clear
3:53 AM 66.9 °F - 54.0 °F 63% 29.91 in 10.0 mi SSW 5.8 mph - N/A   Clear
4:53 AM 66.9 °F - 54.0 °F 63% 29.91 in 10.0 mi SSW 5.8 mph - N/A   Scattered Clouds
5:53 AM 64.9 °F - 54.0 °F 68% 29.91 in 10.0 mi South 8.1 mph - N/A   Clear
6:53 AM 64.0 °F - 53.1 °F 67% 29.92 in 10.0 mi South 6.9 mph - N/A   Clear
7:53 AM 63.0 °F - 53.1 °F 70% 29.93 in 10.0 mi SSW 5.8 mph - N/A   Clear
8:53 AM 73.0 °F - 54.0 °F 51% 29.91 in 10.0 mi SSW 5.8 mph - N/A   Clear
9:53 AM 79.0 °F - 54.0 °F 42% 29.91 in 10.0 mi SSW 9.2 mph - N/A   Clear
10:53 AM 84.0 °F 82.5 °F 53.1 °F 34% 29.90 in 10.0 mi SW 10.4 mph - N/A   Clear
11:53 AM 88.0 °F - 52.0 °F 29% 29.88 in 10.0 mi South 11.5 mph 16.1 mph N/A   Clear
12:53 PM 89.1 °F - 50.0 °F 26% 29.87 in 10.0 mi SSW 8.1 mph 17.3 mph N/A   Scattered Clouds
1:53 PM 90.0 °F - 48.9 °F 24% 29.86 in 10.0 mi South 6.9 mph 19.6 mph N/A   Partly Cloudy
2:53 PM 91.9 °F - 48.0 °F 22% 29.84 in 10.0 mi South 8.1 mph - N/A   Partly Cloudy
3:53 PM 89.1 °F - 48.9 °F 25% 29.83 in 10.0 mi SSE 9.2 mph - N/A   Scattered Clouds
4:41 PM 93.2 °F - 46.4 °F 20% 29.99 in 10.0 mi SE 17.3 mph 24.2 mph N/A   Mostly Cloudy
4:53 PM 93.9 °F - 46.0 °F 19% 29.79 in 10.0 mi SSE 15.0 mph 20.7 mph N/A   Mostly Cloudy
5:53 PM 91.0 °F - 45.0 °F 20% 29.79 in 10.0 mi South 13.8 mph - N/A   Scattered Clouds
6:53 PM 90.0 °F - 46.0 °F 22% 29.78 in 10.0 mi South 13.8 mph 25.3 mph N/A   Scattered Clouds
7:53 PM 86.0 °F - 50.0 °F 29% 29.79 in 10.0 mi SSE 17.3 mph - N/A   Partly Cloudy
8:53 PM 82.9 °F - 48.9 °F 31% 29.80 in 8.0 mi SSE 12.7 mph - N/A   Clear
9:53 PM 78.1 °F - 50.0 °F 37% 29.81 in 6.0 mi SSE 9.2 mph - N/A   Haze
10:53 PM 78.1 °F - 48.9 °F 36% 29.83 in 10.0 mi South 10.4 mph - N/A   Clear
11:53 PM 75.0 °F - 48.9 °F 40% 29.84 in 10.0 mi South 10.4 mph - N/A   Clear